TimeEDT,TemperatureF,Dew PointF,Humidity,Sea Level PressureIn,VisibilityMPH,Wind Direction,Wind SpeedMPH,Gust SpeedMPH,PrecipitationIn,Events,Conditions,WindDirDegrees,DateUTC
12:15 AM,46.4,24.8,43,30.01,7.0,Calm,Calm,-,N/A,,Overcast,0,2013-03-23 04:15:00
12:35 AM,46.4,24.8,43,30.01,10.0,Calm,Calm,-,N/A,,Overcast,0,2013-03-23 04:35:00
12:55 AM,46.4,24.8,43,30.01,10.0,Calm,Calm,-,N/A,,Overcast,0,2013-03-23 04:55:00
1:15 AM,46.4,24.8,43,30.01,10.0,Calm,Calm,-,N/A,,Overcast,0,2013-03-23 05:15:00
1:55 AM,46.4,26.6,46,30.00,10.0,NE,4.6,-,N/A,,Overcast,50,2013-03-23 05:55:00
2:15 AM,46.4,26.6,46,30.00,10.0,Calm,Calm,-,N/A,,Overcast,0,2013-03-23 06:15:00
2:35 AM,46.4,28.4,50,30.00,10.0,Calm,Calm,-,N/A,,Drizzle,0,2013-03-23 06:35:00
2:55 AM,46.4,30.2,53,29.99,10.0,Calm,Calm,-,N/A,Rain,Light Rain,0,2013-03-23 06:55:00
3:15 AM,44.6,32.0,61,29.98,10.0,Calm,Calm,-,N/A,Rain,Light Rain,0,2013-03-23 07:15:00
3:35 AM,44.6,32.0,61,29.97,10.0,Calm,Calm,-,N/A,,Overcast,0,2013-03-23 07:35:00
3:55 AM,44.6,32.0,61,29.96,10.0,NE,5.8,-,N/A,,Overcast,50,2013-03-23 07:55:00
4:35 AM,42.8,33.8,70,29.95,5.0,North,3.5,-,N/A,Rain,Light Rain,10,2013-03-23 08:35:00
4:55 AM,42.8,35.6,76,29.95,3.0,ESE,4.6,-,N/A,Rain,Rain,110,2013-03-23 08:55:00
5:15 AM,42.8,35.6,76,29.96,4.0,Calm,Calm,-,N/A,Rain,Light Rain,0,2013-03-23 09:15:00
5:55 AM,41.0,35.6,81,29.95,5.0,East,5.8,-,N/A,Rain,Rain,100,2013-03-23 09:55:00
6:15 AM,41.0,35.6,81,29.97,7.0,East,3.5,-,N/A,,Light Drizzle,80,2013-03-23 10:15:00
6:55 AM,41.0,35.6,81,29.96,5.0,Calm,Calm,-,N/A,Rain,Rain,0,2013-03-23 10:55:00
7:15 AM,41.0,35.6,81,29.99,1.8,Calm,Calm,-,N/A,Rain,Rain,0,2013-03-23 11:15:00
7:35 AM,41.0,35.6,81,29.99,1.5,ENE,3.5,-,N/A,,Overcast,70,2013-03-23 11:35:00
7:55 AM,41.0,35.6,81,29.99,1.5,ENE,4.6,-,N/A,Rain,Heavy Rain,60,2013-03-23 11:55:00
8:15 AM,41.0,35.6,81,29.99,4.0,ENE,5.8,-,N/A,Rain,Rain,60,2013-03-23 12:15:00
8:35 AM,41.0,35.6,81,29.97,3.0,Calm,Calm,-,N/A,Rain,Rain,0,2013-03-23 12:35:00
8:55 AM,41.0,35.6,81,29.99,2.0,ENE,3.5,-,N/A,Rain,Rain,70,2013-03-23 12:55:00
9:15 AM,41.0,37.4,87,29.99,2.0,East,3.5,-,N/A,Rain,Rain,80,2013-03-23 13:15:00
9:35 AM,41.0,37.4,87,30.00,1.5,Calm,Calm,-,N/A,Rain,Rain,0,2013-03-23 13:35:00
9:55 AM,41.0,37.4,87,30.00,1.2,SSE,3.5,-,N/A,Rain,Rain,150,2013-03-23 13:55:00
10:15 AM,41.0,37.4,87,29.95,0.5,East,4.6,-,N/A,Rain,Rain,100,2013-03-23 14:15:00
10:55 AM,42.8,39.2,87,29.97,4.0,ENE,5.8,-,N/A,,Overcast,60,2013-03-23 14:55:00
11:15 AM,44.6,39.2,81,29.98,7.0,NE,6.9,-,N/A,,Overcast,50,2013-03-23 15:15:00
11:35 AM,44.6,41.0,87,29.98,7.0,ENE,6.9,-,N/A,,Overcast,60,2013-03-23 15:35:00
11:55 AM,46.4,41.0,81,29.98,10.0,East,4.6,-,N/A,,Overcast,80,2013-03-23 15:55:00
12:15 PM,46.4,41.0,81,29.97,10.0,East,6.9,-,N/A,,Overcast,80,2013-03-23 16:15:00
12:35 PM,46.4,41.0,81,29.97,10.0,ENE,3.5,-,N/A,,Overcast,70,2013-03-23 16:35:00
12:55 PM,46.4,41.0,81,29.96,10.0,ENE,4.6,-,N/A,,Overcast,70,2013-03-23 16:55:00
1:15 PM,46.4,41.0,81,29.95,10.0,ENE,5.8,-,N/A,,Overcast,70,2013-03-23 17:15:00
1:35 PM,48.2,41.0,76,29.94,10.0,ENE,3.5,-,N/A,,Overcast,70,2013-03-23 17:35:00
1:55 PM,50.0,41.0,71,29.93,10.0,East,5.8,-,N/A,,Overcast,80,2013-03-23 17:55:00
2:15 PM,50.0,41.0,71,29.92,10.0,Calm,Calm,-,N/A,,Overcast,0,2013-03-23 18:15:00
2:35 PM,50.0,41.0,71,29.92,10.0,East,3.5,-,N/A,,Overcast,80,2013-03-23 18:35:00
2:55 PM,51.8,41.0,67,29.91,10.0,ESE,4.6,-,N/A,,Overcast,110,2013-03-23 18:55:00
3:15 PM,51.8,41.0,67,29.90,10.0,East,3.5,-,N/A,,Overcast,100,2013-03-23 19:15:00
3:35 PM,51.8,41.0,67,29.89,10.0,East,5.8,-,N/A,,Overcast,80,2013-03-23 19:35:00
3:55 PM,53.6,41.0,62,29.89,10.0,East,6.9,-,N/A,,Overcast,90,2013-03-23 19:55:00
4:15 PM,53.6,41.0,62,29.88,10.0,East,3.5,-,N/A,,Overcast,80,2013-03-23 20:15:00
4:35 PM,53.6,41.0,62,29.88,10.0,East,5.8,-,N/A,,Overcast,90,2013-03-23 20:35:00
4:55 PM,53.6,41.0,62,29.87,10.0,ESE,5.8,-,N/A,,Overcast,110,2013-03-23 20:55:00
5:15 PM,53.6,41.0,62,29.87,10.0,East,6.9,-,N/A,,Overcast,100,2013-03-23 21:15:00
5:35 PM,53.6,41.0,62,29.87,10.0,ENE,3.5,-,N/A,,Overcast,70,2013-03-23 21:35:00
5:55 PM,53.6,41.0,62,29.87,10.0,East,3.5,-,N/A,,Overcast,80,2013-03-23 21:55:00
6:15 PM,53.6,41.0,62,29.87,10.0,ENE,4.6,-,N/A,,Overcast,70,2013-03-23 22:15:00
6:35 PM,53.6,42.8,67,29.88,10.0,Calm,Calm,-,N/A,,Overcast,0,2013-03-23 22:35:00
6:55 PM,53.6,42.8,67,29.87,10.0,Calm,Calm,-,N/A,,Overcast,0,2013-03-23 22:55:00
7:15 PM,53.6,42.8,67,29.86,10.0,ENE,3.5,-,N/A,,Overcast,70,2013-03-23 23:15:00
7:35 PM,53.6,42.8,67,29.86,10.0,East,6.9,-,N/A,,Overcast,100,2013-03-23 23:35:00
7:55 PM,51.8,42.8,71,29.87,10.0,ESE,5.8,-,N/A,,Overcast,110,2013-03-23 23:55:00
8:15 PM,51.8,42.8,71,29.85,10.0,ESE,8.1,-,N/A,,Overcast,110,2013-03-24 00:15:00
8:55 PM,51.8,42.8,71,29.83,10.0,East,6.9,-,N/A,,Mostly Cloudy,80,2013-03-24 00:55:00
9:15 PM,50.0,42.8,76,29.84,10.0,East,5.8,-,N/A,,Overcast,80,2013-03-24 01:15:00
9:55 PM,50.0,42.8,76,29.85,7.0,East,6.9,-,N/A,,Overcast,100,2013-03-24 01:55:00
10:15 PM,50.0,42.8,76,29.85,7.0,East,5.8,-,N/A,,Overcast,90,2013-03-24 02:15:00
10:35 PM,50.0,42.8,76,29.82,5.0,East,8.1,-,N/A,,Haze,80,2013-03-24 02:35:00
10:55 PM,50.0,42.8,76,29.84,5.0,East,6.9,-,N/A,,Haze,80,2013-03-24 02:55:00
11:15 PM,50.0,42.8,76,29.81,5.0,ENE,10.4,16.1,N/A,,Haze,70,2013-03-24 03:15:00
11:35 PM,50.0,42.8,76,29.80,5.0,East,10.4,18.4,N/A,,Haze,100,2013-03-24 03:35:00
11:55 PM,48.2,42.8,82,29.79,4.0,East,13.8,20.7,N/A,Rain,Light Rain,90,2013-03-24 03:55:00